Zurück zum Katalog

COSMOS 1275 DEB

LostPO
NORAD 42190·DEBRIS·🇷🇺 Russia

Gestartet Jun 4, 1981 von Plesetsk Cosmodrome

Loading…

Nächste Überflüge (nächste 24 Stunden)

TLE

VeraltetSource: Space-Track

Epoche: Sep 28, 2022, 05:00 UTC

1 42190U 81053TE  22271.20900850  .00003011  00000-0  14148-2 0  9996
2 42190  82.9269  89.2387 0054120 214.0889 145.6812 14.19002104968603

Verfolge COSMOS 1275 DEB in Echtzeit mit AllMySat

Download on the App Store